GFSSW_500_temp_333.txt.gz
Temp
-8 -8 -8 -8 -8 -7 -7 -7 -7 -7 -6 -6 -5 -5 -5 -5 -5 -6 -5 -6 -6 -8 -8 -8 -8 -8 -7 -6 -7 -8 -7 -8 -8 -9 -8 -8 -8 -8 -8 -8 -7 -8 -7 -7 -7
-7 -8 -8 -8 -8 -8 -7 -7 -7 -7 -7 -6 -6 -5 -5 -6 -6 -6 -6 -7 -7 -8 -8 -7 -8 -7 -7 -7 -8 -8 -8 -8 -9 -8 -8 -8 -8 -8 -8 -8 -8 -7 -7 -7 -7
-7 -7 -7 -8 -8 -8 -8 -8 -8 -8 -7 -7 -6 -6 -5 -6 -6 -6 -6 -7 -7 -8 -9 -9 -7 -9 -8 -9 -9 -8 -9 -9 -9 -8 -8 -9 -9 -8 -8 -8 -8 -8 -7 -7 -7
-8 -7 -7 -7 -8 -8 -8 -8 -8 -8 -8 -7 -7 -6 -6 -6 -6 -6 -7 -7 -8 -9 -9 -9 -8 -9 -8 -8 -9 -9 -7 -10 -9 -8 -8 -9 -9 -8 -8 -8 -8 -8 -7 -7 -7
-8 -8 -7 -7 -7 -8 -8 -8 -8 -8 -8 -8 -7 -7 -6 -7 -7 -7 -7 -8 -9 -9 -8 -9 -7 -9 -9 -9 -9 -9 -9 -8 -8 -8 -8 -8 -8 -8 -8 -8 -8 -8 -8 -8 -8
-8 -8 -7 -7 -8 -8 -8 -8 -8 -8 -8 -8 -7 -7 -7 -7 -7 -7 -8 -9 -9 -9 -10 -8 -8 -10 -9 -9 -9 -9 -9 -8 -8 -8 -8 -8 -8 -8 -8 -9 -8 -8 -8 -8 -8
-8 -8 -7 -7 -8 -8 -8 -9 -9 -9 -8 -8 -8 -7 -7 -8 -8 -8 -9 -9 -9 -9 -9 -8 -10 -9 -9 -9 -9 -9 -9 -9 -10 -8 -9 -7 -7 -7 -8 -9 -9 -9 -8 -8 -8
-8 -8 -7 -8 -8 -8 -8 -9 -9 -9 -8 -8 -8 -8 -8 -8 -8 -7 -9 -9 -9 -9 -9 -9 -9 -9 -9 -10 -9 -9 -8 -9 -9 -9 -9 -8 -8 -9 -9 -9 -9 -9 -9 -9 -9
-8 -8 -8 -8 -8 -8 -9 -9 -9 -9 -8 -8 -8 -8 -8 -8 -8 -8 -8 -9 -9 -10 -10 -10 -9 -10 -9 -10 -9 -10 -9 -9 -9 -9 -10 -9 -8 -9 -10 -9 -9 -9 -10 -10 -9
-8 -8 -8 -8 -8 -9 -9 -9 -9 -9 -8 -9 -9 -9 -9 -9 -9 -8 -8 -9 -10 -9 -10 -10 -10 -9 -10 -10 -10 -10 -9 -9 -9 -9 -9 -10 -9 -9 -10 -10 -9 -9 -10 -9 -10
-8 -8 -8 -8 -8 -9 -9 -9 -9 -9 -9 -9 -10 -10 -9 -10 -10 -9 -9 -9 -10 -10 -10 -10 -10 -10 -10 -10 -10 -9 -9 -10 -10 -10 -10 -10 -9 -10 -10 -10 -10 -9 -9 -9 -9
-8 -8 -8 -8 -8 -9 -9 -9 -9 -9 -9 -10 -10 -9 -10 -11 -10 -9 -9 -9 -10 -10 -10 -11 -11 -11 -11 -11 -10 -10 -10 -10 -10 -10 -10 -10 -9 -10 -10 -10 -10 -10 -10 -10 -10
-8 -8 -8 -8 -8 -9 -9 -10 -9 -9 -10 -10 -11 -10 -10 -10 -10 -10 -9 -9 -10 -9 -11 -11 -11 -11 -11 -11 -11 -10 -10 -10 -10 -11 -10 -11 -11 -11 -10 -10 -11 -11 -10 -9 -10
-8 -7 -8 -8 -9 -9 -9 -9 -9 -9 -10 -10 -10 -10 -10 -10 -11 -10 -10 -10 -10 -10 -11 -11 -11 -11 -11 -10 -9 -9 -10 -10 -10 -10 -10 -11 -10 -10 -10 -10 -10 -11 -11 -11 -11
-8 -7 -8 -8 -9 -9 -10 -9 -10 -10 -10 -10 -10 -10 -10 -9 -11 -10 -11 -10 -10 -10 -10 -11 -11 -11 -11 -11 -10 -10 -10 -10 -10 -10 -11 -11 -11 -10 -10 -10 -11 -11 -11 -11 -12
-8 -7 -8 -8 -9 -9 -9 -9 -10 -10 -10 -11 -11 -10 -10 -10 -11 -11 -12 -11 -11 -11 -10 -9 -11 -11 -11 -9 -10 -10 -10 -10 -11 -10 -10 -11 -11 -10 -10 -10 -11 -11 -11 -12 -13
-8 -8 -8 -9 -9 -9 -9 -9 -10 -10 -11 -11 -11 -11 -10 -10 -10 -11 -11 -12 -11 -11 -10 -11 -10 -10 -10 -10 -10 -10 -11 -10 -9 -9 -10 -11 -11 -11 -11 -11 -11 -11 -12 -13 -13
-8 -8 -8 -9 -9 -9 -9 -9 -9 -10 -11 -11 -11 -12 -10 -10 -10 -10 -10 -11 -11 -11 -10 -11 -10 -11 -11 -10 -10 -10 -11 -11 -11 -10 -10 -10 -12 -11 -11 -12 -11 -12 -12 -12 -12
-8 -8 -8 -9 -10 -9 -10 -9 -10 -10 -11 -11 -11 -12 -10 -10 -10 -10 -11 -11 -11 -11 -11 -11 -11 -11 -10 -10 -10 -10 -10 -10 -10 -10 -10 -11 -12 -12 -11 -12 -12 -12 -12 -12 -12
-7 -8 -8 -9 -10 -10 -10 -10 -11 -11 -10 -11 -11 -11 -11 -11 -11 -12 -12 -12 -11 -11 -10 -11 -10 -11 -11 -11 -10 -11 -10 -10 -11 -11 -11 -12 -12 -12 -12 -12 -12 -12 -12 -13 -13
-8 -8 -9 -10 -10 -10 -10 -11 -11 -11 -12 -11 -11 -11 -11 -11 -11 -12 -11 -11 -11 -11 -11 -11 -11 -10 -11 -12 -11 -11 -11 -11 -12 -12 -12 -12 -12 -12 -12 -12 -13 -13 -13 -13 -14
-8 -8 -9 -10 -10 -10 -11 -11 -11 -11 -12 -11 -11 -10 -10 -11 -10 -10 -11 -11 -11 -11 -11 -10 -10 -9 -10 -10 -10 -10 -11 -11 -11 -12 -12 -13 -12 -12 -12 -12 -12 -13 -13 -14 -14
-8 -8 -9 -10 -10 -10 -11 -11 -11 -11 -12 -11 -10 -12 -10 -11 -12 -11 -11 -11 -11 -11 -10 -10 -10 -9 -10 -10 -10 -10 -11 -11 -10 -11 -12 -12 -12 -12 -12 -13 -13 -14 -14 -14 -14
-9 -8 -10 -10 -11 -11 -11 -10 -11 -11 -12 -12 -12 -12 -11 -11 -11 -11 -10 -10 -11 -11 -10 -10 -10 -10 -10 -10 -10 -10 -11 -11 -11 -11 -12 -12 -12 -12 -12 -13 -13 -13 -13 -14 -14
-9 -8 -8 -10 -11 -11 -11 -11 -12 -11 -11 -12 -12 -12 -11 -12 -11 -11 -11 -11 -10 -11 -10 -11 -10 -10 -10 -10 -10 -11 -11 -13 -12 -12 -12 -13 -13 -13 -13 -13 -14 -14 -14 -14 -14
-9 -9 -9 -10 -11 -11 -11 -11 -12 -11 -11 -12 -12 -12 -11 -11 -12 -11 -11 -11 -10 -10 -9 -10 -9 -10 -10 -10 -10 -11 -12 -13 -12 -12 -12 -13 -13 -13 -13 -14 -14 -14 -14 -14 -14
-10 -10 -10 -11 -11 -12 -12 -11 -11 -11 -11 -11 -12 -12 -12 -11 -11 -11 -11 -11 -11 -10 -10 -10 -10 -10 -10 -11 -11 -12 -12 -13 -13 -13 -13 -14 -14 -14 -14 -15 -15 -14 -14 -14 -15

GFSSW_500_temp_336.txt.gz
Temp
-8 -8 -8 -8 -7 -7 -7 -7 -7 -7 -6 -6 -6 -6 -5 -5 -6 -6 -7 -7 -7 -8 -8 -7 -6 -8 -8 -8 -8 -8 -8 -8 -7 -8 -9 -9 -9 -8 -9 -8 -8 -8 -8 -8 -8
-7 -7 -8 -8 -8 -8 -8 -7 -7 -7 -7 -7 -6 -6 -5 -6 -6 -7 -7 -7 -8 -8 -8 -8 -9 -8 -8 -7 -7 -8 -8 -8 -8 -9 -10 -9 -9 -9 -9 -8 -8 -7 -8 -8 -8
-7 -7 -7 -8 -8 -8 -8 -8 -8 -8 -8 -7 -7 -6 -6 -6 -6 -7 -7 -8 -9 -10 -10 -10 -9 -8 -8 -9 -8 -7 -9 -8 -8 -9 -9 -8 -8 -8 -8 -8 -8 -8 -8 -8 -7
-8 -8 -7 -7 -7 -8 -8 -8 -8 -8 -8 -8 -7 -6 -6 -6 -6 -7 -7 -9 -10 -9 -10 -10 -9 -8 -9 -8 -8 -8 -8 -8 -9 -9 -8 -8 -8 -9 -8 -8 -9 -9 -8 -8 -8
-8 -8 -8 -7 -7 -7 -8 -9 -8 -8 -8 -8 -8 -7 -6 -7 -7 -7 -8 -10 -9 -10 -10 -9 -9 -9 -9 -9 -9 -9 -9 -10 -10 -9 -10 -9 -9 -9 -8 -8 -9 -8 -8 -8 -8
-8 -8 -8 -7 -7 -7 -8 -9 -8 -9 -8 -8 -8 -7 -7 -7 -7 -8 -8 -9 -9 -10 -10 -9 -9 -9 -9 -10 -8 -9 -10 -9 -10 -9 -9 -9 -9 -9 -9 -8 -8 -9 -9 -9 -9
-8 -8 -7 -7 -7 -8 -8 -8 -9 -9 -9 -8 -8 -7 -8 -8 -8 -8 -8 -9 -10 -10 -10 -9 -9 -8 -9 -10 -9 -9 -10 -10 -10 -10 -9 -9 -9 -9 -9 -8 -9 -9 -9 -9 -9
-8 -8 -8 -7 -8 -8 -8 -8 -9 -9 -9 -8 -8 -8 -8 -8 -8 -9 -8 -10 -10 -10 -9 -10 -9 -10 -10 -10 -10 -9 -8 -8 -9 -10 -9 -9 -9 -9 -9 -9 -9 -9 -10 -10 -9
-8 -8 -8 -8 -8 -8 -8 -9 -9 -9 -9 -8 -8 -8 -8 -8 -8 -9 -9 -10 -10 -10 -10 -9 -10 -11 -10 -11 -10 -9 -9 -9 -10 -9 -10 -9 -9 -9 -10 -10 -9 -10 -10 -11 -10
-8 -8 -8 -8 -8 -8 -9 -9 -9 -9 -9 -9 -9 -9 -9 -9 -9 -9 -9 -9 -10 -11 -10 -10 -11 -10 -10 -11 -10 -10 -10 -10 -10 -10 -10 -10 -9 -9 -10 -10 -10 -11 -11 -10 -11
-8 -8 -8 -8 -8 -8 -9 -9 -9 -9 -9 -8 -9 -9 -10 -9 -9 -9 -10 -10 -10 -10 -11 -10 -10 -10 -11 -10 -11 -10 -10 -10 -10 -10 -10 -10 -10 -9 -10 -11 -10 -11 -11 -11 -11
-8 -8 -8 -8 -8 -8 -9 -10 -10 -9 -9 -9 -9 -9 -9 -9 -10 -10 -10 -10 -11 -11 -11 -10 -11 -11 -11 -11 -11 -10 -10 -10 -10 -11 -10 -11 -11 -10 -10 -10 -10 -11 -11 -11 -11
-8 -8 -8 -8 -8 -9 -10 -10 -10 -10 -10 -10 -10 -10 -10 -9 -10 -10 -11 -10 -10 -11 -11 -11 -11 -11 -11 -10 -10 -10 -10 -11 -11 -10 -10 -10 -10 -10 -11 -10 -10 -11 -11 -11 -12
-8 -8 -8 -8 -9 -9 -9 -9 -10 -10 -10 -11 -11 -10 -10 -11 -10 -11 -10 -11 -11 -11 -10 -10 -11 -11 -11 -11 -11 -11 -11 -10 -11 -11 -11 -10 -10 -10 -10 -11 -11 -11 -11 -11 -11
-8 -8 -8 -8 -9 -9 -9 -9 -10 -10 -10 -11 -12 -11 -10 -10 -11 -10 -11 -11 -11 -11 -11 -10 -11 -11 -11 -11 -11 -11 -11 -10 -10 -10 -10 -10 -10 -10 -10 -11 -11 -11 -11 -11 -12
-8 -8 -8 -8 -9 -9 -9 -9 -10 -10 -10 -11 -11 -11 -11 -10 -11 -11 -11 -11 -10 -10 -10 -10 -11 -11 -11 -11 -11 -11 -11 -10 -9 -10 -9 -10 -11 -11 -11 -11 -10 -10 -11 -12 -12
-8 -8 -8 -8 -9 -9 -9 -9 -9 -10 -11 -11 -11 -12 -12 -11 -10 -10 -12 -12 -11 -11 -11 -11 -11 -12 -11 -10 -11 -11 -10 -11 -9 -9 -9 -10 -10 -10 -10 -10 -10 -11 -12 -12 -12
-8 -8 -8 -8 -9 -10 -10 -10 -10 -10 -10 -10 -11 -11 -11 -11 -11 -11 -11 -11 -12 -12 -11 -11 -11 -10 -10 -11 -11 -10 -10 -10 -10 -10 -11 -11 -11 -11 -10 -10 -10 -11 -12 -12 -13
-8 -8 -8 -9 -9 -10 -10 -10 -10 -10 -10 -11 -11 -11 -11 -11 -11 -11 -12 -11 -11 -11 -11 -11 -10 -11 -11 -11 -11 -10 -10 -10 -11 -10 -11 -11 -11 -10 -10 -10 -11 -12 -12 -13 -12
-8 -8 -8 -9 -9 -10 -10 -10 -10 -11 -11 -11 -11 -10 -11 -11 -11 -11 -12 -11 -11 -11 -11 -11 -10 -11 -11 -11 -10 -11 -10 -10 -11 -11 -11 -11 -11 -10 -10 -11 -12 -12 -13 -13 -13
-8 -8 -9 -9 -10 -10 -10 -11 -11 -11 -11 -11 -11 -10 -11 -11 -11 -11 -11 -11 -11 -11 -11 -11 -11 -10 -11 -11 -10 -10 -11 -10 -11 -11 -12 -11 -10 -10 -11 -12 -12 -13 -13 -13 -14
-8 -8 -9 -9 -10 -11 -11 -11 -12 -12 -11 -12 -12 -12 -11 -11 -11 -11 -11 -11 -11 -11 -11 -11 -11 -10 -10 -10 -10 -10 -10 -10 -11 -11 -12 -11 -10 -11 -12 -12 -13 -13 -14 -14 -14
-9 -9 -8 -10 -10 -11 -11 -11 -11 -11 -11 -11 -12 -12 -11 -12 -12 -11 -11 -11 -11 -11 -11 -12 -11 -10 -9 -10 -10 -10 -10 -11 -10 -10 -11 -11 -11 -12 -12 -13 -13 -14 -13 -14 -14
-9 -9 -8 -9 -10 -11 -11 -11 -12 -11 -12 -10 -11 -12 -12 -12 -12 -11 -12 -11 -11 -11 -11 -11 -11 -11 -10 -10 -10 -10 -11 -11 -10 -11 -11 -11 -12 -13 -13 -13 -13 -13 -14 -14 -14
-9 -9 -9 -10 -10 -10 -12 -12 -12 -12 -11 -11 -12 -12 -12 -12 -12 -12 -11 -11 -11 -11 -11 -12 -12 -11 -10 -10 -10 -10 -11 -11 -12 -12 -12 -12 -13 -13 -13 -13 -13 -14 -14 -14 -14
-10 -10 -10 -10 -11 -11 -10 -11 -12 -12 -12 -12 -11 -12 -12 -12 -13 -12 -12 -11 -11 -11 -11 -12 -11 -10 -11 -11 -11 -11 -11 -11 -11 -12 -12 -12 -13 -13 -14 -14 -14 -14 -14 -15 -15
-10 -10 -10 -11 -11 -11 -11 -12 -12 -12 -11 -12 -11 -11 -11 -12 -12 -12 -12 -11 -11 -11 -11 -11 -11 -11 -11 -11 -11 -11 -11 -12 -12 -13 -12 -13 -14 -14 -15 -14 -14 -15 -15 -15 -16

GFSSW_500_temp_339.txt.gz
Temp
-8 -8 -8 -8 -8 -8 -7 -7 -7 -7 -7 -7 -6 -6 -6 -6 -6 -7 -7 -7 -7 -7 -7 -8 -8 -7 -8 -7 -7 -8 -9 -8 -7 -7 -8 -9 -9 -9 -8 -8 -8 -8 -8 -8 -8
-8 -8 -8 -8 -8 -8 -8 -8 -8 -7 -7 -7 -7 -6 -6 -6 -7 -7 -8 -7 -8 -8 -8 -8 -8 -9 -8 -8 -8 -8 -8 -8 -7 -7 -8 -9 -9 -8 -8 -8 -8 -8 -8 -8 -8
-8 -8 -8 -7 -8 -8 -8 -8 -8 -8 -8 -8 -7 -7 -6 -6 -7 -8 -8 -8 -9 -9 -8 -8 -9 -9 -8 -8 -8 -8 -8 -8 -7 -7 -8 -9 -9 -9 -8 -8 -8 -8 -8 -8 -8
-8 -8 -8 -8 -8 -8 -8 -8 -8 -8 -8 -8 -8 -7 -7 -7 -7 -8 -9 -9 -10 -10 -8 -10 -9 -9 -9 -9 -9 -9 -8 -9 -8 -8 -9 -9 -10 -10 -9 -9 -8 -8 -8 -8 -8
-8 -8 -8 -8 -8 -8 -8 -8 -9 -8 -8 -8 -8 -7 -7 -7 -8 -9 -10 -10 -10 -10 -9 -9 -9 -9 -9 -8 -9 -8 -9 -9 -9 -9 -9 -9 -10 -9 -9 -9 -9 -9 -9 -9 -8
-8 -8 -8 -8 -8 -8 -8 -8 -9 -9 -9 -8 -8 -8 -7 -8 -8 -9 -10 -11 -11 -10 -10 -10 -10 -10 -9 -8 -10 -9 -9 -9 -9 -9 -8 -9 -9 -9 -9 -9 -9 -9 -9 -9 -9
-8 -8 -8 -7 -8 -8 -8 -9 -9 -9 -9 -9 -8 -8 -8 -8 -9 -10 -10 -11 -11 -10 -10 -10 -10 -10 -10 -10 -10 -10 -10 -10 -9 -9 -9 -10 -10 -10 -10 -10 -10 -10 -8 -9 -9
-8 -8 -8 -8 -8 -8 -8 -9 -9 -9 -9 -9 -8 -8 -8 -8 -9 -9 -11 -11 -10 -10 -10 -10 -10 -9 -10 -11 -11 -10 -11 -11 -10 -10 -10 -9 -10 -9 -10 -10 -10 -9 -9 -10 -10
-8 -8 -8 -8 -8 -8 -8 -9 -9 -9 -9 -9 -9 -9 -9 -9 -10 -10 -11 -10 -10 -10 -11 -10 -10 -10 -11 -11 -10 -10 -11 -11 -11 -11 -10 -9 -9 -9 -9 -9 -10 -10 -10 -10 -11
-8 -8 -8 -8 -8 -8 -8 -9 -9 -9 -9 -8 -9 -9 -10 -10 -10 -11 -11 -10 -10 -11 -11 -11 -11 -11 -11 -11 -11 -11 -10 -11 -11 -11 -11 -10 -10 -9 -10 -10 -10 -10 -11 -10 -11
-8 -8 -8 -8 -8 -8 -9 -9 -9 -9 -9 -9 -10 -9 -10 -11 -11 -11 -11 -11 -11 -11 -11 -11 -11 -11 -11 -10 -9 -10 -10 -10 -11 -11 -11 -11 -11 -10 -10 -11 -10 -11 -10 -11 -11
-8 -8 -8 -8 -8 -9 -9 -9 -9 -9 -9 -9 -9 -9 -9 -9 -10 -11 -11 -11 -11 -11 -11 -11 -11 -11 -11 -11 -11 -11 -10 -10 -11 -11 -11 -11 -11 -10 -11 -10 -11 -11 -11 -11 -11
-8 -8 -8 -8 -8 -9 -9 -9 -10 -10 -10 -10 -10 -10 -10 -10 -10 -11 -11 -11 -11 -12 -11 -11 -11 -11 -11 -10 -11 -11 -10 -10 -11 -11 -11 -11 -11 -10 -10 -10 -11 -12 -11 -12 -12
-8 -8 -8 -8 -8 -8 -9 -9 -10 -10 -10 -11 -11 -11 -10 -10 -10 -12 -11 -11 -11 -11 -11 -11 -11 -11 -11 -11 -11 -11 -11 -11 -11 -11 -11 -11 -10 -10 -10 -10 -11 -11 -12 -12 -12
-8 -8 -8 -8 -8 -9 -9 -10 -10 -10 -10 -11 -12 -12 -11 -11 -12 -11 -11 -11 -11 -11 -11 -11 -11 -11 -11 -11 -11 -11 -12 -11 -11 -10 -10 -11 -11 -10 -9 -10 -10 -11 -11 -12 -12
-8 -8 -8 -8 -8 -9 -9 -10 -10 -10 -11 -11 -12 -12 -12 -11 -11 -12 -11 -11 -11 -11 -12 -11 -11 -11 -11 -11 -12 -11 -11 -11 -10 -10 -10 -10 -10 -9 -9 -10 -10 -11 -12 -12 -12
-8 -8 -8 -8 -9 -9 -9 -10 -10 -10 -10 -11 -11 -12 -12 -12 -12 -12 -12 -11 -11 -11 -11 -11 -11 -12 -11 -12 -11 -11 -11 -10 -10 -10 -10 -10 -9 -10 -10 -10 -11 -11 -11 -12 -12
-8 -8 -8 -8 -8 -9 -10 -10 -10 -10 -10 -10 -11 -11 -12 -12 -12 -12 -12 -12 -12 -12 -12 -11 -11 -11 -11 -11 -11 -11 -11 -11 -10 -10 -10 -10 -10 -10 -10 -10 -11 -11 -12 -12 -13
-8 -8 -8 -8 -9 -9 -10 -10 -10 -11 -11 -11 -11 -11 -11 -12 -12 -12 -12 -12 -12 -12 -11 -11 -11 -11 -11 -12 -11 -11 -11 -11 -10 -10 -10 -10 -10 -10 -11 -11 -11 -11 -12 -12 -12
-8 -8 -8 -9 -9 -10 -10 -10 -10 -10 -11 -11 -11 -11 -10 -11 -11 -12 -12 -12 -12 -12 -12 -11 -10 -11 -11 -11 -11 -11 -10 -10 -10 -10 -10 -10 -10 -10 -11 -11 -12 -11 -11 -12 -12
-8 -8 -8 -8 -10 -10 -11 -11 -11 -11 -11 -11 -11 -11 -11 -11 -11 -11 -11 -12 -12 -12 -12 -11 -11 -11 -11 -11 -11 -10 -10 -10 -10 -10 -11 -11 -10 -11 -11 -12 -12 -12 -12 -12 -12
-8 -8 -9 -9 -10 -10 -11 -11 -11 -11 -11 -11 -12 -11 -12 -12 -11 -11 -11 -11 -12 -12 -12 -12 -11 -10 -10 -11 -11 -11 -10 -10 -10 -11 -11 -11 -11 -11 -12 -12 -12 -12 -13 -13 -14
-8 -8 -9 -9 -9 -10 -11 -11 -11 -11 -11 -11 -12 -11 -12 -12 -11 -12 -12 -12 -11 -11 -11 -11 -11 -11 -11 -12 -11 -10 -10 -10 -10 -11 -11 -11 -11 -12 -12 -12 -12 -13 -13 -13 -14
-9 -9 -9 -9 -9 -10 -10 -11 -11 -11 -11 -12 -11 -11 -11 -12 -12 -12 -11 -11 -11 -11 -11 -11 -11 -11 -11 -11 -10 -10 -11 -11 -11 -11 -11 -12 -12 -12 -13 -13 -14 -13 -14 -14 -15
-9 -9 -10 -10 -10 -10 -11 -11 -10 -10 -11 -11 -11 -12 -12 -12 -11 -12 -12 -12 -12 -12 -11 -12 -12 -12 -12 -11 -11 -11 -11 -11 -11 -12 -12 -12 -13 -13 -14 -14 -14 -14 -15 -15 -15
-9 -9 -10 -10 -10 -11 -11 -11 -11 -11 -12 -11 -11 -11 -11 -11 -11 -10 -12 -12 -12 -11 -11 -11 -11 -12 -12 -12 -11 -11 -11 -12 -12 -11 -12 -13 -13 -13 -13 -13 -14 -14 -15 -15 -16
-10 -10 -10 -10 -10 -11 -11 -11 -11 -12 -11 -12 -12 -12 -12 -11 -11 -11 -12 -12 -12 -11 -11 -11 -12 -11 -12 -12 -12 -12 -12 -12 -12 -12 -12 -13 -12 -13 -13 -13 -14 -14 -15 -16 -17

GFSSW_500_temp_342.txt.gz
Temp
-9 -9 -8 -8 -8 -8 -8 -8 -7 -7 -7 -7 -7 -7 -6 -6 -6 -6 -6 -7 -7 -7 -8 -8 -8 -8 -8 -8 -8 -8 -8 -8 -8 -8 -7 -8 -8 -8 -8 -8 -8 -8 -8 -8 -8
-8 -8 -8 -8 -8 -8 -8 -8 -8 -8 -8 -7 -7 -7 -7 -6 -6 -7 -7 -7 -7 -8 -8 -8 -9 -9 -8 -8 -8 -9 -8 -8 -9 -9 -8 -8 -8 -8 -8 -8 -8 -8 -8 -8 -8
-8 -8 -8 -8 -8 -8 -8 -8 -8 -8 -8 -8 -8 -7 -7 -7 -7 -7 -7 -7 -8 -9 -9 -9 -9 -9 -9 -9 -9 -8 -8 -9 -9 -8 -8 -8 -9 -9 -9 -9 -9 -9 -8 -8 -9
-7 -8 -8 -8 -8 -8 -8 -8 -8 -8 -8 -8 -8 -8 -7 -7 -7 -7 -8 -8 -8 -9 -9 -9 -10 -9 -8 -8 -8 -9 -9 -9 -9 -9 -9 -9 -8 -9 -9 -9 -9 -9 -8 -9 -8
-8 -8 -8 -8 -8 -8 -8 -8 -8 -9 -9 -8 -8 -8 -7 -8 -8 -8 -9 -9 -9 -9 -10 -10 -10 -10 -9 -8 -9 -9 -10 -10 -10 -10 -9 -9 -9 -9 -9 -9 -9 -9 -9 -9 -8
-8 -8 -8 -8 -8 -8 -8 -8 -8 -9 -9 -9 -9 -8 -8 -8 -9 -10 -10 -10 -10 -10 -10 -10 -9 -10 -10 -9 -10 -10 -10 -10 -10 -10 -10 -9 -9 -9 -9 -9 -9 -9 -10 -9 -8
-8 -8 -8 -8 -8 -8 -8 -8 -9 -9 -9 -9 -9 -8 -8 -9 -10 -10 -11 -10 -10 -10 -10 -10 -10 -10 -10 -9 -10 -11 -11 -11 -10 -10 -10 -9 -10 -9 -10 -9 -9 -9 -9 -9 -9
-8 -7 -8 -8 -8 -8 -8 -8 -9 -9 -9 -9 -9 -9 -9 -9 -10 -11 -11 -12 -11 -10 -11 -11 -11 -10 -10 -10 -10 -11 -11 -10 -10 -10 -10 -10 -9 -9 -10 -10 -9 -10 -10 -10 -9
-8 -8 -8 -8 -8 -8 -8 -8 -9 -9 -9 -9 -9 -9 -9 -10 -11 -11 -11 -12 -11 -11 -11 -11 -11 -11 -11 -10 -10 -10 -10 -10 -10 -10 -9 -9 -10 -10 -10 -10 -10 -11 -10 -10 -10
-8 -8 -8 -8 -8 -8 -8 -8 -9 -9 -10 -9 -9 -9 -10 -10 -11 -11 -12 -12 -12 -11 -11 -11 -11 -11 -11 -10 -10 -10 -10 -11 -10 -10 -10 -10 -10 -10 -10 -11 -10 -10 -10 -10 -10
-8 -8 -8 -8 -8 -8 -8 -8 -9 -10 -10 -9 -10 -9 -9 -10 -11 -12 -12 -12 -12 -11 -11 -12 -11 -11 -11 -11 -10 -11 -11 -11 -11 -11 -10 -11 -10 -11 -11 -11 -10 -10 -10 -11 -11
-8 -8 -8 -8 -8 -8 -8 -9 -9 -10 -10 -9 -10 -10 -10 -10 -10 -11 -12 -12 -12 -12 -12 -12 -11 -11 -11 -11 -11 -11 -11 -11 -10 -10 -11 -10 -10 -10 -11 -10 -10 -11 -11 -11 -12
-8 -8 -8 -8 -8 -8 -9 -9 -10 -10 -10 -10 -10 -10 -11 -11 -11 -11 -12 -12 -12 -12 -12 -12 -12 -12 -12 -11 -11 -11 -11 -10 -10 -10 -11 -10 -10 -10 -10 -10 -10 -11 -11 -11 -12
-8 -8 -8 -8 -8 -8 -9 -10 -10 -11 -10 -10 -10 -10 -11 -11 -11 -11 -12 -12 -12 -12 -12 -12 -12 -12 -12 -12 -12 -11 -11 -11 -10 -11 -11 -11 -11 -10 -11 -10 -10 -11 -12 -12 -13
-8 -8 -8 -8 -8 -9 -9 -10 -10 -11 -10 -10 -10 -10 -11 -12 -12 -11 -12 -13 -12 -11 -12 -11 -12 -12 -12 -12 -11 -11 -11 -11 -11 -11 -11 -11 -11 -10 -11 -11 -11 -11 -12 -12 -12
-8 -8 -8 -9 -8 -9 -9 -10 -10 -10 -10 -10 -11 -11 -12 -12 -12 -13 -13 -12 -12 -12 -12 -11 -12 -12 -12 -11 -11 -11 -12 -11 -11 -11 -11 -11 -11 -10 -10 -11 -11 -11 -11 -12 -12
-8 -8 -8 -8 -8 -9 -9 -10 -10 -10 -10 -11 -11 -11 -11 -12 -12 -12 -13 -12 -12 -12 -12 -12 -12 -12 -11 -11 -11 -12 -12 -12 -11 -11 -10 -10 -10 -10 -10 -11 -11 -11 -11 -12 -12
-8 -8 -8 -8 -9 -9 -9 -10 -10 -11 -10 -11 -11 -11 -11 -11 -12 -12 -12 -12 -12 -12 -12 -12 -12 -12 -11 -12 -12 -12 -12 -11 -11 -11 -10 -10 -10 -10 -11 -11 -11 -11 -11 -11 -12
-8 -8 -8 -8 -9 -9 -10 -10 -10 -10 -11 -11 -11 -11 -11 -11 -12 -12 -12 -12 -12 -12 -12 -11 -11 -11 -11 -11 -11 -11 -11 -11 -11 -11 -10 -10 -10 -11 -12 -12 -12 -11 -11 -12 -12
-8 -8 -8 -8 -9 -9 -10 -11 -10 -10 -10 -11 -11 -12 -12 -12 -11 -12 -12 -12 -12 -12 -12 -12 -11 -11 -11 -11 -11 -11 -11 -11 -11 -10 -10 -10 -10 -11 -12 -12 -12 -12 -12 -12 -13
-8 -8 -8 -8 -8 -9 -10 -10 -10 -11 -11 -11 -11 -12 -12 -12 -11 -12 -12 -12 -12 -12 -12 -12 -12 -11 -11 -11 -11 -11 -11 -12 -11 -11 -10 -10 -10 -12 -12 -12 -12 -12 -13 -13 -13
-8 -8 -8 -8 -9 -9 -9 -10 -10 -10 -11 -11 -11 -11 -13 -12 -12 -11 -12 -12 -12 -12 -12 -12 -11 -11 -11 -11 -11 -11 -11 -12 -11 -11 -10 -11 -11 -12 -12 -13 -13 -13 -14 -13 -13
-8 -9 -9 -9 -9 -9 -9 -9 -10 -10 -10 -11 -11 -11 -12 -12 -12 -12 -12 -12 -12 -12 -12 -11 -11 -11 -11 -11 -11 -11 -12 -11 -11 -10 -11 -11 -12 -12 -12 -12 -13 -13 -13 -13 -14
-9 -9 -9 -9 -9 -9 -10 -10 -10 -11 -11 -11 -11 -12 -12 -12 -11 -12 -12 -12 -12 -12 -12 -12 -11 -11 -11 -11 -11 -12 -11 -11 -11 -11 -11 -12 -11 -13 -13 -13 -13 -13 -13 -14 -15
-9 -9 -9 -9 -9 -9 -10 -10 -11 -11 -11 -11 -11 -12 -12 -12 -12 -12 -12 -12 -12 -12 -12 -11 -12 -12 -12 -12 -12 -12 -12 -11 -11 -11 -11 -12 -13 -13 -13 -13 -13 -13 -14 -14 -14
-10 -10 -10 -10 -10 -10 -10 -11 -11 -11 -11 -12 -11 -11 -12 -13 -12 -11 -12 -12 -11 -12 -12 -12 -11 -12 -12 -12 -12 -12 -12 -11 -11 -12 -12 -13 -13 -13 -13 -13 -13 -13 -14 -14 -15
-10 -10 -10 -10 -10 -10 -11 -11 -11 -11 -12 -12 -13 -12 -12 -11 -11 -12 -12 -12 -12 -12 -12 -12 -12 -12 -13 -12 -12 -12 -12 -13 -12 -12 -13 -12 -12 -12 -13 -13 -13 -14 -14 -15 -15

GFSSW_500_temp_345.txt.gz
Temp
-8 -9 -8 -8 -8 -8 -8 -8 -8 -7 -7 -7 -7 -7 -7 -6 -6 -6 -6 -7 -8 -8 -8 -8 -8 -8 -8 -8 -7 -8 -9 -8 -8 -8 -8 -8 -7 -8 -8 -8 -8 -8 -8 -8 -7
-8 -8 -8 -8 -8 -8 -8 -8 -8 -8 -7 -7 -7 -7 -7 -7 -6 -6 -7 -8 -8 -8 -9 -8 -8 -8 -8 -8 -9 -9 -9 -9 -9 -8 -8 -8 -8 -7 -8 -8 -8 -8 -8 -8 -8
-8 -8 -8 -8 -8 -8 -8 -8 -8 -8 -8 -8 -8 -8 -7 -7 -6 -7 -7 -8 -9 -9 -9 -9 -9 -8 -8 -9 -9 -9 -9 -9 -9 -9 -8 -9 -8 -8 -8 -8 -8 -8 -9 -8 -8
-8 -8 -8 -8 -9 -8 -8 -8 -8 -8 -8 -8 -8 -8 -8 -7 -7 -7 -8 -9 -9 -9 -9 -10 -9 -8 -8 -9 -9 -9 -9 -9 -9 -9 -9 -9 -9 -8 -8 -8 -8 -8 -8 -8 -9
-8 -8 -8 -8 -8 -8 -8 -8 -8 -8 -8 -9 -8 -8 -8 -8 -8 -8 -8 -10 -10 -10 -10 -10 -10 -9 -9 -9 -9 -9 -9 -9 -10 -10 -10 -9 -9 -9 -8 -8 -8 -9 -9 -9 -9
-8 -8 -8 -8 -8 -8 -8 -8 -8 -8 -9 -9 -9 -8 -8 -8 -8 -9 -9 -10 -10 -10 -10 -10 -10 -10 -9 -9 -9 -9 -9 -10 -10 -9 -10 -9 -9 -9 -8 -8 -9 -9 -10 -10 -10
-8 -8 -8 -8 -8 -8 -8 -8 -8 -9 -9 -9 -9 -9 -9 -9 -9 -9 -10 -10 -10 -10 -10 -10 -10 -10 -10 -10 -10 -9 -9 -9 -9 -10 -9 -9 -9 -9 -9 -10 -10 -10 -10 -10 -10
-7 -8 -8 -8 -8 -8 -8 -8 -8 -9 -9 -9 -9 -9 -9 -9 -10 -10 -11 -11 -11 -10 -10 -10 -11 -11 -11 -10 -10 -9 -10 -9 -9 -9 -9 -10 -10 -9 -10 -10 -9 -10 -10 -10 -10
-8 -8 -8 -8 -8 -8 -8 -8 -9 -9 -10 -10 -10 -9 -9 -10 -10 -11 -11 -11 -11 -11 -11 -11 -11 -11 -11 -10 -10 -10 -10 -10 -10 -10 -10 -10 -10 -10 -9 -9 -9 -10 -10 -10 -10
-8 -8 -8 -8 -8 -8 -8 -8 -9 -10 -10 -10 -9 -9 -10 -10 -10 -11 -11 -11 -12 -11 -11 -12 -12 -12 -11 -11 -11 -11 -11 -10 -10 -10 -10 -10 -9 -10 -10 -10 -10 -10 -10 -10 -11
-8 -8 -8 -8 -8 -8 -9 -9 -9 -10 -10 -10 -9 -9 -9 -10 -11 -11 -12 -12 -11 -11 -12 -12 -12 -12 -12 -11 -11 -12 -11 -11 -11 -10 -10 -10 -9 -10 -10 -10 -9 -10 -10 -10 -10
-8 -8 -8 -8 -8 -8 -9 -9 -9 -9 -10 -10 -9 -10 -10 -10 -10 -11 -11 -11 -12 -12 -12 -12 -12 -12 -12 -11 -11 -12 -12 -11 -11 -10 -10 -10 -10 -10 -10 -10 -10 -10 -10 -10 -10
-8 -8 -8 -8 -8 -9 -9 -9 -9 -10 -10 -10 -10 -10 -10 -10 -11 -12 -12 -12 -13 -12 -12 -12 -11 -12 -13 -12 -12 -12 -12 -11 -11 -11 -10 -10 -10 -10 -11 -11 -11 -11 -10 -11 -11
-8 -8 -8 -8 -8 -9 -9 -10 -10 -10 -10 -10 -10 -10 -10 -11 -11 -12 -12 -13 -12 -12 -13 -12 -12 -12 -12 -12 -12 -12 -12 -11 -11 -11 -11 -10 -11 -10 -11 -11 -11 -11 -11 -11 -12
-8 -8 -8 -8 -8 -9 -9 -10 -10 -11 -10 -10 -10 -10 -11 -11 -12 -12 -13 -13 -13 -12 -13 -12 -12 -12 -13 -12 -12 -12 -11 -11 -11 -11 -11 -11 -11 -10 -11 -11 -11 -11 -11 -11 -12
-8 -8 -8 -8 -9 -9 -9 -10 -10 -10 -10 -10 -10 -11 -11 -11 -12 -12 -12 -13 -13 -13 -13 -12 -12 -12 -12 -12 -12 -12 -11 -11 -11 -11 -11 -11 -11 -10 -11 -11 -11 -12 -11 -11 -12
-8 -8 -8 -8 -8 -9 -9 -10 -10 -10 -10 -10 -10 -11 -11 -12 -12 -12 -12 -12 -12 -13 -13 -13 -12 -12 -12 -12 -12 -12 -12 -12 -11 -11 -11 -11 -11 -11 -11 -11 -11 -11 -11 -11 -12
-8 -8 -8 -8 -8 -8 -9 -10 -10 -10 -10 -10 -11 -11 -11 -11 -12 -12 -12 -13 -12 -12 -12 -12 -12 -12 -12 -12 -12 -12 -11 -12 -12 -11 -11 -11 -11 -11 -11 -11 -11 -11 -11 -12 -12
-9 -8 -8 -8 -8 -8 -9 -10 -10 -10 -10 -10 -11 -11 -12 -11 -12 -12 -12 -13 -12 -12 -12 -12 -12 -12 -12 -12 -12 -11 -11 -11 -11 -11 -11 -11 -11 -11 -11 -11 -11 -11 -12 -12 -13
-9 -9 -8 -8 -8 -8 -8 -9 -10 -10 -11 -11 -11 -11 -11 -12 -12 -12 -12 -12 -12 -12 -12 -12 -12 -12 -12 -12 -12 -12 -11 -11 -11 -11 -12 -12 -11 -11 -11 -11 -12 -12 -12 -13 -13
-9 -9 -8 -8 -8 -8 -9 -9 -9 -10 -10 -11 -11 -11 -11 -12 -12 -11 -12 -12 -12 -12 -12 -12 -12 -12 -12 -12 -12 -12 -11 -11 -12 -12 -12 -12 -11 -12 -11 -12 -12 -12 -13 -13 -13
-9 -9 -9 -9 -9 -9 -9 -9 -10 -10 -10 -11 -11 -11 -12 -12 -12 -12 -12 -12 -12 -12 -12 -12 -12 -12 -12 -12 -11 -11 -12 -12 -12 -12 -11 -11 -11 -11 -11 -12 -12 -12 -12 -13 -13
-9 -9 -9 -9 -9 -9 -9 -9 -10 -10 -11 -11 -11 -12 -12 -11 -12 -12 -12 -12 -12 -12 -12 -12 -12 -12 -12 -12 -11 -12 -12 -12 -12 -11 -11 -11 -12 -11 -12 -12 -12 -12 -13 -13 -13
-9 -9 -9 -9 -9 -9 -9 -9 -10 -11 -11 -11 -11 -12 -12 -12 -12 -12 -12 -12 -12 -12 -12 -12 -12 -12 -12 -11 -11 -11 -11 -12 -12 -12 -12 -11 -12 -12 -12 -12 -12 -13 -13 -13 -13
-10 -10 -9 -9 -9 -9 -9 -10 -10 -11 -11 -11 -11 -12 -12 -12 -12 -12 -12 -12 -12 -12 -12 -12 -12 -12 -12 -11 -11 -11 -12 -12 -12 -12 -12 -12 -12 -12 -12 -12 -12 -12 -13 -14 -14
-10 -10 -10 -10 -9 -9 -10 -10 -10 -10 -11 -11 -11 -11 -12 -13 -13 -12 -13 -12 -12 -12 -13 -13 -12 -12 -12 -12 -12 -12 -12 -12 -12 -12 -12 -12 -12 -12 -12 -12 -13 -13 -14 -14 -14
-10 -10 -10 -10 -10 -10 -10 -10 -11 -11 -11 -12 -12 -12 -12 -12 -12 -12 -12 -12 -12 -13 -13 -12 -12 -12 -13 -13 -13 -12 -12 -12 -12 -12 -12 -12 -12 -12 -12 -13 -13 -13 -14 -14 -14